User: anonymous   Login
Location: Unspecified
(0.0000°N, 0.0000°E)
Time: 17:44:37
(UTC+00:00)
Language:

JASON 2 - Orbit

View from above orbital plane
View from above orbital plane
View from above satellite
View from above satellite

Ground track
Ground track

The orbit data is extracted from the following two-line orbital elements,

1 33105U 08032A   18197.90402943 -.00000060 +00000-0 +73289-5 0  9993
2 33105 066.0421 012.2253 0008172 268.2035 265.9507 12.87691403471346
Epoch (UTC): 16 July 2018 21:41:48
Eccentricity: 0.0008172
inclination: 66.0421°
perigee height: 1304 km
apogee height: 1317 km
right ascension of ascending node: 12.2253°
argument of perigee: 268.2035°
revolutions per day: 12.87691403
mean anomaly at epoch: 265.9507°
orbit number at epoch: 47134

The dashed part of the orbit path shows where the satellite is in the earth's shadow,  

DLR